New Bedford, MA

7:30 PM EDT on May 26, 2017 (GMT -0400)
New Bedford Regional

Weather History for KEWB - August, 2013

Change the Weather History Date:

Thursday, August 1, 2013

  Actual Average Record
Temperature  
Mean Temperature 68 °F -  
Max Temperature 80 °F 82 °F 97 °F (1975)
Min Temperature 57 °F 66 °F 51 °F (2010)
Cooling Degree Days 4    
Growing Degree Days 18 (Base 50)    
Moisture  
Dew Point 61 °F    
Average Humidity 85    
Maximum Humidity 100    
Minimum Humidity 48    
Precipitation  
Precipitation 0.12 in - - ()
Sea Level Pressure  
Sea Level Pressure 29.99 in    
Wind  
Wind Speed 2 mph (South)    
Max Wind Speed 14 mph    
Max Gust Speed 17 mph    
Visibility 7 miles    
Events Fog , Rain    
Averages and records for this station are not official NWS values.
T = Trace of Precipitation, MM = Missing Value Source: NWS Daily Summary

Daily Weather History Graph

Daily Weather History Graph

Search for Another Location

Airport or City:

Trip Planner

Search our weather history database for the weather conditions in past years. The results will help you decide how hot, cold, wet, or windy it might be!

Date:

Astronomy

Aug. 01, 2013 Rise Set
Actual Time 5:38 AM EDT 8:01 PM EDT
Civil Twilight 5:06 AM EDT 8:32 PM EDT
Nautical Twilight 4:28 AM EDT 9:11 PM EDT
Astronomical Twilight 3:44 AM EDT 9:54 PM EDT
Moon 1:11 AM EDT (8/1) 4:08 PM EDT (8/1)
Length of Visible Light 15h 25m
Length of Day
14h 23m
Waning Crescent, 23% of the Moon is Illuminated
Aug 1
Waning Crescent
Aug 6
New
Aug 14
First Quarter
Aug 20
Full
Aug 28
Last Quarter

Hourly Weather History & Observations

Time (EDT) Temp. Heat Index Dew Point Humidity Pressure Visibility Wind Dir Wind Speed Gust Speed Precip Events Conditions
12:53 AM 62.1 °F - 61.0 °F 96% 30.06 in 8.0 mi Calm Calm - N/A   Clear
1:25 AM 60.8 °F - 59.0 °F 94% 30.05 in 1.8 mi Calm Calm - N/A   Clear
1:32 AM 60.8 °F - 60.8 °F 100% 30.05 in 3.0 mi Calm Calm - N/A   Clear
1:53 AM 61.0 °F - 60.1 °F 97% 30.05 in 6.0 mi Calm Calm - N/A   Clear
2:53 AM 61.0 °F - 60.1 °F 97% 30.03 in 10.0 mi Calm Calm - N/A   Clear
3:27 AM 60.8 °F - 59.0 °F 94% 30.02 in 1.5 mi Calm Calm - N/A   Clear
3:39 AM 60.8 °F - 59.0 °F 94% 30.02 in 3.0 mi Calm Calm - N/A   Clear
3:53 AM 60.1 °F - 59.0 °F 96% 30.02 in 9.0 mi Calm Calm - N/A   Clear
4:43 AM 59.0 °F - 57.2 °F 94% 30.02 in 1.8 mi Calm Calm - N/A   Clear
4:53 AM 57.9 °F - 57.0 °F 97% 30.01 in 6.0 mi Calm Calm - N/A   Clear
5:43 AM 59.0 °F - 57.2 °F 94% 30.01 in 3.0 mi Calm Calm - N/A   Scattered Clouds
5:51 AM 59.0 °F - 57.2 °F 94% 30.01 in 4.0 mi Calm Calm - N/A   Mostly Cloudy
5:53 AM 59.0 °F - 57.9 °F 96% 30.01 in 5.0 mi Calm Calm - N/A   Mostly Cloudy
6:24 AM 60.8 °F - 60.8 °F 100% 30.01 in 1.2 mi Calm Calm - N/A   Overcast
6:26 AM 60.8 °F - 60.8 °F 100% 30.01 in 0.5 mi Calm Calm - N/A Fog Fog
6:39 AM 60.8 °F - 60.8 °F 100% 30.01 in 0.5 mi Calm Calm - N/A Fog Fog
6:49 AM 60.8 °F - 60.8 °F 100% 30.02 in 0.5 mi Calm Calm - N/A Fog Fog
6:53 AM 62.1 °F - 61.0 °F 96% 30.02 in 1.0 mi Calm Calm - N/A   Scattered Clouds
7:25 AM 66.2 °F - 64.4 °F 94% 30.02 in 6.0 mi Calm Calm - N/A   Scattered Clouds
7:53 AM 70.0 °F - 66.9 °F 90% 30.02 in 10.0 mi Calm Calm - N/A   Clear
8:53 AM 75.0 °F - 64.0 °F 69% 30.01 in 10.0 mi Variable 4.6 mph - N/A   Clear
9:53 AM 77.0 °F - 63.0 °F 62% 29.99 in 10.0 mi SE 9.2 mph - N/A   Clear
10:53 AM 77.0 °F - 60.1 °F 56% 29.98 in 10.0 mi SSE 9.2 mph - N/A   Clear
11:53 AM 79.0 °F - 60.1 °F 52% 29.98 in 10.0 mi SSE 11.5 mph - N/A   Clear
12:53 PM 80.1 °F 80.7 °F 59.0 °F 48% 29.96 in 10.0 mi South 13.8 mph - N/A   Clear
1:53 PM 79.0 °F - 62.1 °F 56% 29.95 in 10.0 mi South 12.7 mph - N/A   Partly Cloudy
2:53 PM 79.0 °F - 62.1 °F 56% 29.93 in 10.0 mi SSE 11.5 mph 17.3 mph N/A   Clear
3:53 PM 75.0 °F - 62.1 °F 64% 29.94 in 10.0 mi South 10.4 mph - N/A   Overcast
4:53 PM 72.0 °F - 66.0 °F 81% 29.94 in 10.0 mi SSW 6.9 mph - 0.00 in Rain Light Rain
5:53 PM 72.0 °F - 66.9 °F 84% 29.93 in 10.0 mi South 8.1 mph - 0.00 in   Overcast
6:53 PM 71.1 °F - 64.0 °F 78% 29.92 in 10.0 mi SSW 5.8 mph - N/A   Mostly Cloudy
7:53 PM 71.1 °F - 64.9 °F 81% 29.92 in 10.0 mi South 5.8 mph - N/A   Overcast
8:53 PM 71.1 °F - 64.9 °F 81% 29.92 in 10.0 mi South 11.5 mph - 0.00 in Rain Light Rain
9:53 PM 64.9 °F - 61.0 °F 87% 29.93 in 8.0 mi SSW 5.8 mph - 0.05 in Rain Light Rain
10:53 PM 64.0 °F - 62.1 °F 93% 29.91 in 8.0 mi Calm Calm - 0.05 in Rain Light Rain
11:53 PM 64.0 °F - 62.1 °F 93% 29.89 in 10.0 mi Calm Calm - 0.02 in   Overcast